SCP
0 0 0 0 0 0 0 0 0 0 0 0 0 0 0 0 0 0 0 0 0 0 0 0 0 0 0 0 0 0 0 0 0 0 0 0 0 0 0 0 0 0 0
0 0 0 0 0 0 0 0 0 0 0 0 0 0 0 0 0 0 0 0 0 0 0 0 0 0 0 0 0 0 0 0 0 0 0 0 0 0 0 0 0 0 0
0 0 0 0 0 0 0 0 0 0 0 0 0 0 0 0 0 0 0 0 0 0 0 0 0 0 0 0 0 0 0 0 0 0 0 0 0 0 0 0 0 0 0
0 0 0 0 0 0 0 0 0 0 0 0 0 0 0 0 0 0 0 0 0 0 0 0 0 0 0 0 0 0 0 0 0 0 0 0 0 0 0 0 0 0 0
0 0 0 0 0 0 0 0 0 0 0 0 0 0 0 0 0 0 0 0 0 0 0 0 0 0 0 0 0 0 0 0 0 0 0 0 0 0 0 0 0 0 0
0 0 0 0 0 0 0 0 0 0 0 0 0 0 0 0 0 0 0 0 0 0 0 0 0 0 0 0 0 0 0 0 0 0 0 0 0 0 0 0 0 0 0
0 0 0 0 0 0 0 0 0 0 0 0 0 0 0 0 0 0 0 0 0 0 0 0 0 0 0 0 0 0 0 0 0 0 0 0 0 0 0 0 0 0 0
0 0 0 0 0 0 0 0 0 0 0 0 0 0 0 0 0 0 0 0 0 0 0 0 0 0 0 0 0 0 0 0 0 0 0 0 0 0 0 0 0 0 0
0 0 0 0 0 0 0 0 0 0 0 0 0 0 0 0 0 0 0 0 0 0 0 0 0 0 0 0 0 0 0 0 0 0 0 0 0 0 0 0 0 0 0
0 0 0 0 0 0 0 0 0 0 0 0 0 0 1 1 1 0 0 0 0 0 0 0 0 0 0 0 0 0 0 0 0 0 0 0 0 0 0 0 0 0 0
0 0 0 0 0 0 0 0 0 0 0 0 0 0 0 1 0 0 0 0 0 0 0 0 0 0 0 0 0 0 0 0 0 0 0 0 0 0 0 0 0 0 0
0 0 0 0 0 0 0 0 0 0 0 0 0 0 0 0 0 0 0 0 0 0 0 0 0 0 0 0 0 0 0 0 0 0 0 0 0 0 0 0 0 0 0
0 0 0 0 0 0 0 0 0 0 0 0 0 0 0 0 0 0 0 0 0 0 0 0 0 0 0 0 0 0 0 0 0 0 0 0 0 0 0 0 0 0 0
0 0 0 0 0 0 0 0 0 0 0 0 0 0 0 0 0 0 0 0 0 0 0 0 0 0 0 0 0 0 0 0 0 0 0 0 0 0 0 0 0 0 0
0 0 0 0 0 0 0 0 0 0 0 0 0 0 0 0 0 0 0 0 0 0 0 0 0 0 0 0 0 0 0 0 0 0 0 0 0 0 0 0 0 0 0
0 0 0 0 0 0 0 0 0 0 0 0 0 0 0 0 0 0 0 0 0 0 0 0 0 0 0 0 0 0 0 0 0 0 0 0 0 0 0 0 0 0 0
0 0 0 0 0 0 0 0 0 0 0 0 0 0 0 0 0 0 0 0 0 0 0 0 0 0 0 0 0 0 0 0 0 0 0 0 0 0 0 0 0 0 0
0 0 0 0 0 0 0 0 0 0 0 0 0 0 0 0 0 0 0 0 0 0 0 0 0 0 0 0 0 0 0 0 0 0 0 0 0 0 0 0 0 0 0
0 0 0 0 0 0 0 0 0 0 0 0 0 0 0 0 0 0 0 0 0 0 0 0 0 0 0 0 0 0 0 0 0 0 0 0 0 0 0 0 0 0 0
0 0 0 0 0 0 0 0 0 0 0 0 0 0 0 0 0 0 0 0 0 0 0 0 0 0 0 0 0 0 0 0 0 0 0 0 0 0 0 0 0 0 0
0 0 0 0 0 0 0 0 0 0 0 0 0 0 0 0 0 0 0 0 0 0 0 0 0 0 0 0 0 0 0 0 0 0 0 0 0 0 0 0 0 0 0
0 0 0 0 0 0 0 0 0 0 0 0 0 0 0 0 0 0 0 0 0 0 0 0 0 0 0 0 0 0 0 0 0 0 0 0 0 0 0 0 0 0 0
1 1 1 1 0 0 0 0 0 0 0 0 0 0 0 0 0 0 0 0 0 0 0 0 0 0 0 0 0 0 0 0 0 0 0 0 0 0 0 0 0 0 0
1 1 1 1 0 0 0 0 0 0 0 0 0 0 0 0 0 0 0 0 0 0 0 0 0 0 0 0 0 0 0 0 0 0 0 0 0 0 0 0 0 0 0
1 1 1 1 0 0 0 0 0 0 0 0 0 0 0 0 0 0 0 0 0 0 0 0 0 0 0 0 0 0 0 0 0 0 0 0 0 0 0 0 0 0 0
1 1 1 1 0 0 0 0 0 0 0 0 0 0 0 0 0 0 0 0 0 0 0 0 0 0 0 0 0 0 0 0 0 0 0 0 0 0 0 0 0 0 0
Wind_Speed
2 2 2 1 1 2 2 1 1 2 1 1 1 1 1 1 1 2 5 9 8 7 7 7 7 7 8 8 8 8 9 9 9 9 10 10 10 10 10 10 10 9 9
2 1 2 1 1 1 2 1 1 1 0 1 1 1 1 1 2 2 3 7 8 7 6 6 7 7 7 8 8 9 9 9 9 9 10 10 10 10 10 10 10 10 10
2 1 1 2 1 1 2 1 1 0 1 1 1 1 1 1 1 2 2 2 5 8 7 6 6 6 7 8 8 9 10 9 9 9 9 10 10 10 10 11 11 11 10
1 1 0 1 1 1 1 2 1 0 0 1 1 0 1 1 2 2 2 2 2 3 7 8 6 6 6 7 8 9 10 10 10 10 10 10 10 11 11 11 11 11 11
0 1 0 1 1 1 1 1 1 0 1 0 1 1 1 1 2 2 2 3 3 2 3 7 6 4 4 5 5 6 7 9 10 10 11 11 11 11 11 11 11 11 11
1 1 1 1 2 1 1 0 0 1 1 1 1 1 1 1 2 2 2 2 2 3 3 3 4 5 5 3 4 4 5 6 8 9 11 11 11 12 12 11 11 11 11
1 1 2 0 2 1 1 1 2 2 2 1 1 1 1 1 1 1 2 2 3 3 2 2 2 1 3 4 2 3 4 5 6 7 8 9 10 10 10 11 11 12 12
1 2 1 2 1 0 1 1 2 2 2 2 2 2 2 2 1 1 1 2 1 1 2 2 1 1 1 1 3 2 2 3 4 4 5 6 6 6 7 8 9 9 10
1 2 1 2 1 2 1 2 3 3 3 2 2 2 2 1 1 1 1 1 1 1 0 2 1 1 1 0 1 2 1 0 1 2 2 2 2 4 5 6 7 7 8
1 1 2 1 2 2 1 3 1 3 4 3 2 2 3 1 2 1 1 1 2 1 1 1 1 2 1 1 2 5 5 3 3 2 1 1 2 2 2 3 4 5 6
2 2 1 1 2 2 1 2 2 3 3 3 2 2 1 1 3 2 1 0 1 1 1 1 1 1 2 2 2 5 7 5 4 4 4 3 2 2 1 1 2 2 3
1 1 1 1 1 1 1 2 2 2 3 3 3 2 2 2 2 2 2 2 1 1 1 1 1 2 2 3 5 9 9 8 7 6 6 6 6 5 4 3 2 1 0
1 0 0 0 1 1 1 1 1 2 2 3 3 2 2 2 2 2 2 1 1 0 1 1 2 2 2 3 5 10 11 10 9 9 9 9 9 9 8 7 6 5 4
0 1 0 0 1 1 1 1 1 2 1 2 2 2 2 2 2 2 1 2 1 1 2 2 2 3 3 4 7 6 8 11 10 9 9 9 9 10 10 10 8 7 6
1 1 1 0 0 0 1 2 1 2 2 2 2 1 1 1 2 1 1 2 2 2 1 2 2 3 3 4 5 5 7 11 11 10 10 10 10 10 11 11 11 11 10
1 1 1 1 0 0 1 1 1 1 1 1 1 2 2 2 1 1 0 0 1 1 1 3 3 3 4 5 7 6 8 12 13 11 10 11 11 11 11 11 11 11 11
2 2 1 1 1 1 1 1 2 2 2 3 2 2 2 3 2 2 1 1 1 1 3 3 3 4 5 4 5 5 5 5 8 11 11 11 12 12 12 12 11 11 11
2 2 2 2 2 2 2 2 2 3 3 3 4 4 4 3 3 3 2 3 2 2 4 5 3 3 4 4 4 4 4 5 6 11 11 11 11 11 11 11 11 10 10
3 3 3 3 2 2 2 2 3 4 4 4 4 4 4 4 4 4 4 3 3 3 3 4 4 3 3 3 3 4 4 3 5 9 10 10 10 10 10 9 9 9 9
4 4 4 3 3 3 3 3 4 4 5 5 5 5 5 5 5 4 3 4 3 3 3 3 4 3 3 3 2 3 3 3 2 4 5 6 8 9 8 8 8 8 8
5 5 5 4 4 3 4 4 4 4 4 5 5 6 7 9 10 7 5 4 3 2 2 3 3 3 3 2 2 1 2 2 2 2 2 3 4 4 6 6 6 6 6
6 5 5 5 4 5 7 6 3 4 4 5 5 5 6 7 9 9 10 9 6 3 2 2 2 2 2 1 1 1 2 1 2 1 1 2 2 3 3 4 6 5 4
6 5 5 5 6 7 6 5 4 3 5 5 5 4 4 6 4 6 7 7 7 7 4 2 2 2 2 1 1 1 1 0 1 1 1 1 1 2 3 6 7 4 2
5 5 5 6 6 7 5 4 2 4 5 6 6 5 5 5 6 4 5 6 6 6 5 4 4 3 3 2 0 1 1 2 2 1 0 0 1 1 2 4 7 4 2
6 5 5 6 6 6 5 2 1 4 5 6 6 6 5 5 6 3 3 5 6 6 8 9 8 7 6 4 2 0 1 1 1 2 1 2 0 0 1 2 5 7 5
6 6 6 5 5 6 5 3 2 3 5 5 5 6 8 6 5 4 3 4 5 5 5 6 5 5 4 4 2 2 2 1 1 1 2 2 1 1 2 1 1 3 4
Wind_Direction
98 93 87 79 89 99 136 128 91 87 103 140 167 137 144 144 141 147 133 155 170 177 182 183 188 191 192 199 202 205 210 211 206 206 208 207 207 207 209 209 209 210 211
76 91 146 122 96 82 53 40 86 93 79 93 134 131 192 167 167 177 158 158 169 177 181 186 186 188 193 202 207 210 214 216 215 214 213 212 213 213 214 214 213 213 215
99 176 132 163 129 123 133 160 89 173 186 172 149 159 184 191 179 186 185 182 171 175 183 188 188 195 206 215 216 215 216 218 218 218 217 216 216 216 218 218 217 217 217
156 239 172 145 141 184 179 159 198 201 204 197 140 241 159 154 193 192 188 189 194 179 180 186 194 202 210 219 222 220 217 216 218 218 221 222 222 221 220 221 222 221 220
180 248 215 87 209 204 218 232 126 210 213 224 180 170 190 182 190 198 193 186 183 199 185 161 181 197 208 217 223 225 220 219 221 222 223 225 225 225 224 225 224 223 223
233 277 217 191 260 230 225 274 249 230 247 226 260 77 237 182 191 183 209 191 183 190 188 168 176 184 193 212 224 231 238 231 231 229 228 228 226 224 225 225 224 223 224
250 266 293 170 264 265 278 251 245 220 234 220 232 208 182 169 151 190 211 202 184 180 174 168 203 196 173 177 201 237 248 248 243 241 236 231 230 228 226 227 229 228 228
273 245 283 278 239 235 225 256 257 264 247 227 247 232 197 152 166 150 184 192 195 164 161 157 161 169 280 169 127 176 242 255 260 251 239 228 225 226 226 227 230 227 224
284 311 300 297 295 259 223 256 257 257 262 257 264 276 272 194 150 137 182 151 124 96 97 88 121 128 193 85 109 138 143 347 301 267 241 225 212 219 225 230 229 226 224
280 277 268 265 270 274 247 252 240 272 267 261 246 267 287 309 261 174 161 113 110 94 62 47 87 91 84 83 68 60 85 81 70 57 68 117 123 137 182 207 222 223 224
270 280 261 263 263 272 289 297 298 274 272 278 278 265 262 253 256 248 222 182 91 68 87 84 80 87 84 68 68 71 79 79 76 68 66 78 101 111 128 162 202 217 223
229 254 255 275 269 288 286 274 278 269 289 300 296 289 277 273 262 250 234 196 121 74 69 58 70 74 78 81 75 78 79 74 71 69 67 67 68 69 68 66 63 48 98
221 130 311 265 277 278 279 286 276 303 293 285 277 283 289 286 294 283 246 197 191 139 109 87 72 79 81 86 86 88 79 74 70 69 71 71 68 66 64 63 65 67 65
280 63 227 224 284 297 303 308 291 285 297 291 296 305 299 296 286 274 233 183 173 156 134 110 79 64 61 72 79 89 82 79 74 72 73 73 71 68 64 60 60 62 64
176 157 180 178 297 324 331 304 322 323 326 315 314 299 298 324 307 286 224 211 204 186 126 112 92 65 74 72 81 82 79 79 79 77 77 78 76 74 70 67 65 63 62
140 150 163 151 123 60 20 339 333 11 5 7 337 350 341 343 344 328 275 227 257 205 107 84 83 87 73 83 85 84 85 87 79 78 78 78 76 74 72 70 67 64 61
151 151 140 116 98 84 55 40 24 29 28 27 14 26 22 5 5 8 38 47 55 100 115 94 82 88 85 86 93 95 94 91 87 84 81 80 78 74 70 67 65 63 63
139 130 129 123 113 95 77 61 53 47 41 38 39 41 36 42 45 33 42 58 65 84 120 118 114 106 99 104 104 105 101 95 92 93 89 85 81 79 76 72 68 65 62
130 124 113 105 98 90 85 74 68 65 55 46 42 46 44 47 50 55 57 64 74 89 105 123 120 111 115 111 113 103 92 88 101 110 108 101 93 88 83 78 72 67 62
125 119 111 105 96 88 83 81 77 74 69 58 50 50 48 47 48 59 72 78 84 95 111 120 122 124 123 128 136 127 114 103 90 95 93 107 113 108 98 89 81 73 66
121 117 114 108 101 91 67 70 85 85 84 80 69 64 61 59 50 42 48 60 75 90 109 120 121 126 124 133 135 122 112 117 108 107 133 135 138 127 121 113 95 80 75
119 116 112 106 93 77 61 47 48 90 84 84 82 81 88 79 76 74 68 60 51 61 78 100 112 110 108 111 96 128 126 140 131 134 174 127 128 105 101 92 86 84 80
122 117 112 106 98 84 72 60 44 79 85 75 75 71 68 73 71 78 90 96 76 63 54 50 86 80 100 92 140 142 134 133 67 121 194 126 116 100 101 94 106 102 88
125 121 118 116 111 100 86 75 61 94 82 77 74 72 72 68 57 56 76 76 72 65 56 59 71 58 66 63 272 176 152 139 137 112 0 282 139 125 111 117 132 136 130
134 134 129 124 119 112 95 83 22 111 97 84 75 67 66 76 48 19 85 87 85 85 81 77 76 79 76 62 7 259 176 205 145 121 22 302 283 233 187 156 147 162 168
138 135 124 120 119 112 95 66 318 121 108 104 97 91 70 58 43 14 77 86 85 80 84 97 101 112 112 102 46 348 328 307 343 99 66 305 291 280 255 175 166 172 184